Home > Weather > Worcester > Past weeks

Flag for USA Past Weather in Worcester, Massachusetts, USA — Yesterday and Last 2 Weeks

Now
65 °F

Clear.


Feels Like: 65 °F
Forecast: 67 / 88 °F
Wind: 14 mph from Northwest

Location: Worcester Regional Airport

Current Time: Jul 24, 2016 at 6:42:39 AM

Latest Report: Jul 24, 2016 at 5:54 AM


Visibility: 10 mi

Pressure: 29.94 "Hg

Humidity: 76%

Dew Point: 57 °F

Location of WorcesterLocation

Past Weather in Worcester — Graph

°F

Worcester Temperature Yesterday

Maximum temperature yesterday: 88 °F (at 1:54 PM)
Minimum temperature yesterday: 69 °F (at 9:54 PM)
Average temperature yesterday: 78 °F

High & Low Weather Summary for the Past Weeks

 TemperatureHumidityPressure
High92 °F (Jul 22, 4:54 PM)100% (Jul 10, 7:54 AM)30.24 "Hg (Jul 10, 7:54 AM)
Low56 °F (Jul 9, 6:54 AM)29% (Jul 21, 2:54 PM)29.76 "Hg (Jul 22, 6:54 PM)
Average71 °F67%29.99 "Hg
* Reported Jul 9 4:54 AM — Jul 24 4:54 AM, Worcester, Weather by CustomWeather, © 2016

Note: Actual official high and low records may vary slightly from our data, if they occured in-between our weather recording intervals... More about our weather records

Advertising

Worcester Weather History for the Previous 24 Hours

Scroll right to see more
 ConditionsComfort  
Time TempWeatherWind HumidityBarometerVisibility
4:54 AM
Sun, Jul 24
66 °FClear.14 mph73%29.92 "Hg10 mi
3:54 AM65 °FClear.14 mph76%29.93 "Hg10 mi
2:54 AM65 °FClear.12 mph76%29.93 "Hg10 mi
1:54 AM66 °FClear.10 mph70%29.92 "Hg10 mi
12:54 AM67 °FClear.15 mph68%29.90 "Hg10 mi
11:54 PM
Sat, Jul 23
69 °FClear.14 mph61%29.90 "Hg10 mi
10:54 PM69 °FClear.16 mph63%29.88 "Hg10 mi
9:54 PM69 °FClear.12 mph66%29.88 "Hg10 mi
8:54 PM73 °FSunny.14 mph53%29.84 "Hg10 mi
7:54 PM76 °FPassing clouds.14 mph48%29.84 "Hg10 mi
6:54 PM84 °FPassing clouds.18 mph37%29.80 "Hg10 mi
5:54 PM86 °FBroken clouds.15 mph32%29.78 "Hg10 mi
4:54 PM88 °FSunny.14 mph30%29.76 "Hg10 mi
3:54 PM88 °FPassing clouds.18 mph29%29.77 "Hg10 mi
2:54 PM88 °FPassing clouds.16 mph29%29.78 "Hg10 mi
1:54 PM88 °FPassing clouds.16 mph33%29.78 "Hg10 mi
12:54 PM87 °FSunny.10 mph35%29.79 "Hg10 mi
11:54 AM84 °FSunny.16 mph46%29.79 "Hg10 mi
10:54 AM82 °FSunny.16 mph49%29.79 "Hg10 mi
9:54 AM80 °FSunny.16 mph54%29.79 "Hg10 mi
8:54 AM77 °FSunny.10 mph64%29.79 "Hg10 mi
7:54 AM74 °FSunny.13 mph74%29.80 "Hg10 mi
6:54 AM72 °FSunny.13 mph76%29.79 "Hg10 mi
Weather by CustomWeather, © 2016

See weather overviewHow to use our weather pages